Location: Crescent
(42.8242°N, 73.7329°W)
Time: 08:37:14
(UTC+00:00)

Vanguard 1 - Pass Details

Date: 21 February 2026
Orbit: 653 x 3818 km, 34.2° (Epoch: 12 March)

Event Time Altitude Azimuth Distance (km) Brightness Sun altitude
Rises 22:56:59 0° 270° (W) 5,309 16.1 -4.9°
Reaches altitude 10° 22:59:55 10° 266° (W) 4,648 15.4 -5.4°
Maximum altitude 23:13:48 58° 193° (SSW) 3,432 12.9 -7.9°
Drops below altitude 10° 23:35:33 10° 122° (ESE) 6,905 13.9 -11.9°
Enters shadow 23:40:25 - 119° (ESE) 7,802 14.1 -12.8°
Sets 23:41:10 0° 119° (ESE) 7,936 - -12.9°
